Time,TemperatureF,DewpointF,PressureIn,WindDirection,WindDirectionDegrees,WindSpeedMPH,WindSpeedGustMPH,Humidity,HourlyPrecipIn,Conditions,Clouds,dailyrainin,SoftwareType,DateUTC
2013-02-04 00:00:00,21.1,12.1,29.49,North,0,0.0,0.0,68,0.00,,,0.00,WUHU216HW,2013-02-04 05:00:00,
2013-02-04 00:01:00,20.9,11.9,29.48,North,0,0.0,0.0,68,0.00,,,0.00,WUHU216HW,2013-02-04 05:01:00,
2013-02-04 00:03:00,20.9,11.9,29.48,North,0,0.0,0.0,68,0.00,,,0.00,WUHU216HW,2013-02-04 05:03:00,
2013-02-04 00:08:00,20.7,11.7,29.48,North,0,0.0,0.0,68,0.00,,,0.00,WUHU216HW,2013-02-04 05:08:00,
2013-02-04 00:13:00,20.5,11.9,29.48,North,0,0.0,0.0,69,0.00,,,0.00,WUHU216HW,2013-02-04 05:13:00,
2013-02-04 00:18:00,20.2,11.5,29.48,North,0,0.0,0.0,69,0.00,,,0.00,WUHU216HW,2013-02-04 05:18:00,
2013-02-04 00:23:00,20.0,11.3,29.49,North,0,0.0,0.0,69,0.00,,,0.00,WUHU216HW,2013-02-04 05:23:00,
2013-02-04 00:28:00,19.8,11.2,29.48,North,0,0.0,0.0,69,0.00,,,0.00,WUHU216HW,2013-02-04 05:28:00,
2013-02-04 00:33:00,19.6,11.0,29.48,North,0,0.0,0.0,69,0.00,,,0.00,WUHU216HW,2013-02-04 05:33:00,
2013-02-04 00:38:00,19.6,11.0,29.48,North,0,0.0,0.0,69,0.00,,,0.00,WUHU216HW,2013-02-04 05:38:00,
2013-02-04 00:43:00,19.6,11.0,29.48,North,0,0.0,0.0,69,0.00,,,0.00,WUHU216HW,2013-02-04 05:43:00,
2013-02-04 01:00:00,19.3,11.6,29.49,North,0,0.0,0.0,72,0.00,,,0.00,WUHU216HW,2013-02-04 06:00:00,
2013-02-04 01:05:00,19.3,11.6,29.49,North,0,0.0,0.0,72,0.00,,,0.00,WUHU216HW,2013-02-04 06:05:00,
2013-02-04 01:10:00,19.3,11.6,29.49,North,0,0.0,0.0,72,0.00,,,0.00,WUHU216HW,2013-02-04 06:10:00,
2013-02-04 01:15:00,19.4,11.8,29.48,North,0,0.0,0.0,72,0.00,,,0.00,WUHU216HW,2013-02-04 06:15:00,
2013-02-04 01:20:00,19.4,12.1,29.48,North,0,0.0,0.0,73,0.00,,,0.00,WUHU216HW,2013-02-04 06:20:00,
2013-02-04 01:25:00,19.4,12.1,29.48,North,0,0.0,0.0,73,0.00,,,0.00,WUHU216HW,2013-02-04 06:25:00,
2013-02-04 01:30:00,19.4,12.1,29.48,North,0,0.0,0.0,73,0.00,,,0.00,WUHU216HW,2013-02-04 06:30:00,
2013-02-04 01:35:00,19.4,12.1,29.49,North,0,0.0,0.0,73,0.00,,,0.00,WUHU216HW,2013-02-04 06:35:00,
2013-02-04 01:40:00,19.4,12.1,29.49,North,0,0.0,0.0,73,0.00,,,0.00,WUHU216HW,2013-02-04 06:40:00,
2013-02-04 02:00:00,20.0,12.6,29.48,North,0,0.0,0.0,73,0.00,,,0.00,WUHU216HW,2013-02-04 07:00:00,
2013-02-04 02:05:00,20.0,12.6,29.48,North,0,0.0,0.0,73,0.00,,,0.00,WUHU216HW,2013-02-04 07:05:00,
2013-02-04 02:10:00,20.0,12.6,29.48,North,0,0.0,0.0,73,0.00,,,0.00,WUHU216HW,2013-02-04 07:10:00,
2013-02-04 02:15:00,20.2,12.5,29.48,North,0,0.0,0.0,72,0.00,,,0.00,WUHU216HW,2013-02-04 07:15:00,
2013-02-04 02:20:00,20.2,12.5,29.48,North,0,0.0,0.0,72,0.00,,,0.00,WUHU216HW,2013-02-04 07:20:00,
2013-02-04 02:25:00,20.2,12.5,29.48,North,0,0.0,0.0,72,0.00,,,0.00,WUHU216HW,2013-02-04 07:25:00,
2013-02-04 02:30:00,20.2,12.5,29.48,North,0,0.0,0.0,72,0.00,,,0.00,WUHU216HW,2013-02-04 07:30:00,
2013-02-04 02:35:00,20.2,12.5,29.48,North,0,0.0,0.0,72,0.00,,,0.00,WUHU216HW,2013-02-04 07:35:00,
2013-02-04 02:40:00,20.2,12.5,29.48,North,0,0.0,0.0,72,0.00,,,0.00,WUHU216HW,2013-02-04 07:40:00,
2013-02-04 03:00:00,19.8,11.8,29.48,North,0,0.0,0.0,71,0.00,,,0.00,WUHU216HW,2013-02-04 08:00:00,
2013-02-04 03:05:00,19.6,11.6,29.47,North,0,0.0,0.0,71,0.00,,,0.00,WUHU216HW,2013-02-04 08:05:00,
2013-02-04 03:10:00,19.4,11.4,29.47,North,0,0.0,0.0,71,0.00,,,0.00,WUHU216HW,2013-02-04 08:10:00,
2013-02-04 03:15:00,19.4,11.8,29.47,North,0,0.0,0.0,72,0.00,,,0.00,WUHU216HW,2013-02-04 08:15:00,
2013-02-04 03:20:00,19.3,11.6,29.47,North,0,0.0,0.0,72,0.00,,,0.00,WUHU216HW,2013-02-04 08:20:00,
2013-02-04 03:25:00,19.1,11.4,29.47,North,0,0.0,0.0,72,0.00,,,0.00,WUHU216HW,2013-02-04 08:25:00,
2013-02-04 03:30:00,19.1,11.4,29.47,North,0,0.0,0.0,72,0.00,,,0.00,WUHU216HW,2013-02-04 08:30:00,
2013-02-04 03:35:00,18.9,11.3,29.47,North,0,0.0,0.0,72,0.00,,,0.00,WUHU216HW,2013-02-04 08:35:00,
2013-02-04 03:40:00,18.9,11.3,29.47,North,0,0.0,0.0,72,0.00,,,0.00,WUHU216HW,2013-02-04 08:40:00,
2013-02-04 04:00:00,18.4,10.8,29.48,North,0,0.0,0.0,72,0.00,,,0.00,WUHU216HW,2013-02-04 09:00:00,
2013-02-04 04:05:00,18.5,11.3,29.48,North,0,0.0,0.0,73,0.00,,,0.00,WUHU216HW,2013-02-04 09:05:00,
2013-02-04 04:10:00,18.4,10.8,29.47,North,0,0.0,0.0,72,0.00,,,0.00,WUHU216HW,2013-02-04 09:10:00,
2013-02-04 04:15:00,18.4,10.8,29.47,North,0,0.0,0.0,72,0.00,,,0.00,WUHU216HW,2013-02-04 09:15:00,
2013-02-04 04:20:00,18.2,10.6,29.47,North,0,0.0,0.0,72,0.00,,,0.00,WUHU216HW,2013-02-04 09:20:00,
2013-02-04 04:25:00,18.0,10.4,29.48,North,0,0.0,0.0,72,0.00,,,0.00,WUHU216HW,2013-02-04 09:25:00,
2013-02-04 04:30:00,17.8,10.3,29.48,North,0,0.0,0.0,72,0.00,,,0.00,WUHU216HW,2013-02-04 09:30:00,
2013-02-04 04:35:00,17.6,10.1,29.48,North,0,0.0,0.0,72,0.00,,,0.00,WUHU216HW,2013-02-04 09:35:00,
2013-02-04 04:40:00,17.6,10.1,29.48,North,0,0.0,0.0,72,0.00,,,0.00,WUHU216HW,2013-02-04 09:40:00,
2013-02-04 05:00:00,16.6,9.6,29.48,North,0,0.0,0.0,74,0.00,,,0.00,WUHU216HW,2013-02-04 10:00:00,
2013-02-04 05:05:00,16.4,9.5,29.48,North,0,0.0,0.0,74,0.00,,,0.00,WUHU216HW,2013-02-04 10:05:00,
2013-02-04 05:10:00,16.2,9.3,29.48,North,0,0.0,0.0,74,0.00,,,0.00,WUHU216HW,2013-02-04 10:10:00,
2013-02-04 05:16:00,16.2,9.3,29.48,North,0,0.0,0.0,74,0.00,,,0.00,WUHU216HW,2013-02-04 10:16:00,
2013-02-04 05:21:00,16.0,9.2,29.48,North,0,0.0,0.0,74,0.00,,,0.00,WUHU216HW,2013-02-04 10:21:00,
2013-02-04 05:26:00,15.8,9.3,29.48,North,0,0.0,0.0,75,0.00,,,0.00,WUHU216HW,2013-02-04 10:26:00,
2013-02-04 05:31:00,15.8,9.3,29.48,North,0,0.0,0.0,75,0.00,,,0.00,WUHU216HW,2013-02-04 10:31:00,
2013-02-04 05:36:00,15.8,9.3,29.48,North,0,0.0,0.0,75,0.00,,,0.00,WUHU216HW,2013-02-04 10:36:00,
2013-02-04 06:00:00,16.4,10.1,29.50,North,0,0.0,0.0,76,0.00,,,0.00,WUHU216HW,2013-02-04 11:00:00,
2013-02-04 06:05:00,16.0,9.7,29.51,North,0,0.0,0.0,76,0.00,,,0.00,WUHU216HW,2013-02-04 11:05:00,
2013-02-04 06:10:00,15.8,9.5,29.51,North,0,0.0,0.0,76,0.00,,,0.00,WUHU216HW,2013-02-04 11:10:00,
2013-02-04 06:15:00,15.7,9.4,29.51,North,0,0.0,0.0,76,0.00,,,0.00,WUHU216HW,2013-02-04 11:15:00,
2013-02-04 06:20:00,15.5,9.3,29.51,North,0,0.0,0.0,76,0.00,,,0.00,WUHU216HW,2013-02-04 11:20:00,
2013-02-04 06:25:00,15.5,9.3,29.52,North,0,0.0,0.0,76,0.00,,,0.00,WUHU216HW,2013-02-04 11:25:00,
2013-02-04 06:30:00,15.5,9.3,29.52,North,0,0.0,0.0,76,0.00,,,0.00,WUHU216HW,2013-02-04 11:30:00,
2013-02-04 06:35:00,15.5,9.3,29.52,North,0,0.0,0.0,76,0.00,,,0.00,WUHU216HW,2013-02-04 11:35:00,
2013-02-04 06:40:00,15.5,9.3,29.52,North,0,0.0,0.0,76,0.00,,,0.00,WUHU216HW,2013-02-04 11:40:00,
2013-02-04 07:00:00,14.9,8.7,29.53,North,0,0.0,0.0,76,0.00,,,0.00,WUHU216HW,2013-02-04 12:00:00,
2013-02-04 07:05:00,14.8,8.6,29.53,North,0,0.0,0.0,76,0.00,,,0.00,WUHU216HW,2013-02-04 12:05:00,
2013-02-04 07:10:00,14.6,8.4,29.53,North,0,0.0,0.0,76,0.00,,,0.00,WUHU216HW,2013-02-04 12:10:00,
2013-02-04 07:15:00,14.4,8.2,29.53,North,0,0.0,0.0,76,0.00,,,0.00,WUHU216HW,2013-02-04 12:15:00,
2013-02-04 07:20:00,14.4,8.2,29.53,North,0,0.0,0.0,76,0.00,,,0.00,WUHU216HW,2013-02-04 12:20:00,
2013-02-04 07:25:00,14.2,8.0,29.53,North,0,0.0,0.0,76,0.00,,,0.00,WUHU216HW,2013-02-04 12:25:00,
2013-02-04 07:30:00,14.2,8.0,29.53,North,0,0.0,0.0,76,0.00,,,0.00,WUHU216HW,2013-02-04 12:30:00,
2013-02-04 07:35:00,14.4,8.5,29.53,North,0,0.0,0.0,77,0.00,,,0.00,WUHU216HW,2013-02-04 12:35:00,
2013-02-04 07:40:00,14.4,8.5,29.53,North,0,0.0,0.0,77,0.00,,,0.00,WUHU216HW,2013-02-04 12:40:00,
2013-02-04 08:00:00,18.4,10.8,29.54,North,0,0.0,0.0,72,0.00,,,0.00,WUHU216HW,2013-02-04 13:00:00,
2013-02-04 08:05:00,18.9,11.3,29.54,North,0,0.0,0.0,72,0.00,,,0.00,WUHU216HW,2013-02-04 13:05:00,
2013-02-04 08:10:00,19.1,11.4,29.54,North,0,0.0,0.0,72,0.00,,,0.00,WUHU216HW,2013-02-04 13:10:00,
2013-02-04 08:15:00,19.1,11.4,29.54,North,0,0.0,0.0,72,0.00,,,0.00,WUHU216HW,2013-02-04 13:15:00,
2013-02-04 08:20:00,19.3,11.6,29.55,North,0,0.0,0.0,72,0.00,,,0.00,WUHU216HW,2013-02-04 13:20:00,
2013-02-04 08:25:00,19.3,11.4,29.55,North,0,0.0,0.0,71,0.00,,,0.00,WUHU216HW,2013-02-04 13:25:00,
2013-02-04 08:30:00,19.4,11.2,29.55,North,0,0.0,0.0,70,0.00,,,0.00,WUHU216HW,2013-02-04 13:30:00,
2013-02-04 08:35:00,19.4,11.2,29.54,North,0,0.0,0.0,70,0.00,,,0.00,WUHU216HW,2013-02-04 13:35:00,
2013-02-04 08:40:00,19.4,11.2,29.54,North,0,0.0,0.0,70,0.00,,,0.00,WUHU216HW,2013-02-04 13:40:00,
2013-02-04 09:00:00,23.9,14.5,29.54,North,0,0.0,0.0,67,0.00,,,0.00,WUHU216HW,2013-02-04 14:00:00,
2013-02-04 09:05:00,25.6,15.4,29.54,North,0,0.0,0.0,65,0.00,,,0.00,WUHU216HW,2013-02-04 14:05:00,
2013-02-04 09:10:00,26.5,15.5,29.54,North,0,0.0,0.0,63,0.00,,,0.00,WUHU216HW,2013-02-04 14:10:00,
2013-02-04 09:15:00,27.2,16.2,29.53,North,0,0.0,0.0,63,0.00,,,0.00,WUHU216HW,2013-02-04 14:15:00,
2013-02-04 09:20:00,28.1,16.0,29.53,North,0,0.0,0.0,60,0.00,,,0.00,WUHU216HW,2013-02-04 14:20:00,
2013-02-04 09:25:00,28.6,15.8,29.54,North,0,0.0,0.0,58,0.00,,,0.00,WUHU216HW,2013-02-04 14:25:00,
2013-02-04 09:30:00,28.6,15.3,29.54,North,0,0.0,0.0,57,0.00,,,0.00,WUHU216HW,2013-02-04 14:30:00,
2013-02-04 09:35:00,29.0,14.4,29.54,North,0,0.0,0.0,54,0.00,,,0.00,WUHU216HW,2013-02-04 14:35:00,
2013-02-04 09:40:00,29.0,14.4,29.54,North,0,0.0,0.0,54,0.00,,,0.00,WUHU216HW,2013-02-04 14:40:00,
2013-02-04 10:00:00,25.0,9.8,29.54,North,0,0.0,0.0,52,0.00,,,0.00,WUHU216HW,2013-02-04 15:00:00,
2013-02-04 10:05:00,24.8,10.4,29.54,North,0,0.0,0.0,54,0.00,,,0.00,WUHU216HW,2013-02-04 15:05:00,
2013-02-04 10:10:00,24.8,10.1,29.54,North,0,0.0,0.0,53,0.00,,,0.00,WUHU216HW,2013-02-04 15:10:00,
2013-02-04 10:15:00,24.8,10.1,29.53,North,0,0.0,0.0,53,0.00,,,0.00,WUHU216HW,2013-02-04 15:15:00,
2013-02-04 10:20:00,25.0,10.3,29.53,North,0,0.0,0.0,53,0.00,,,0.00,WUHU216HW,2013-02-04 15:20:00,
2013-02-04 10:25:00,25.0,10.6,29.53,North,0,0.0,0.0,54,0.00,,,0.00,WUHU216HW,2013-02-04 15:25:00,
2013-02-04 10:30:00,25.2,10.4,29.53,North,0,0.0,0.0,53,0.00,,,0.00,WUHU216HW,2013-02-04 15:30:00,
2013-02-04 10:35:00,25.2,10.0,29.53,North,0,0.0,0.0,52,0.00,,,0.00,WUHU216HW,2013-02-04 15:35:00,
2013-02-04 10:40:00,25.2,10.0,29.53,North,0,0.0,0.0,52,0.00,,,0.00,WUHU216HW,2013-02-04 15:40:00,
2013-02-04 11:00:00,24.3,8.4,29.53,North,0,0.0,0.0,50,0.00,,,0.00,WUHU216HW,2013-02-04 16:00:00,
2013-02-04 11:05:00,24.3,8.4,29.53,North,0,0.0,0.0,50,0.00,,,0.00,WUHU216HW,2013-02-04 16:05:00,
2013-02-04 11:10:00,24.7,9.1,29.53,North,0,0.0,0.0,51,0.00,,,0.00,WUHU216HW,2013-02-04 16:10:00,
2013-02-04 11:15:00,24.8,9.6,29.53,North,0,0.0,0.0,52,0.00,,,0.00,WUHU216HW,2013-02-04 16:15:00,
2013-02-04 11:20:00,25.2,9.2,29.53,North,0,0.0,0.0,50,0.00,,,0.00,WUHU216HW,2013-02-04 16:20:00,
2013-02-04 11:25:00,25.4,8.8,29.52,North,0,0.0,0.0,49,0.00,,,0.00,WUHU216HW,2013-02-04 16:25:00,
2013-02-04 11:30:00,25.7,9.6,29.52,North,0,0.0,0.0,50,0.00,,,0.00,WUHU216HW,2013-02-04 16:30:00,
2013-02-04 11:35:00,26.1,10.0,29.52,North,0,0.0,0.0,50,0.00,,,0.00,WUHU216HW,2013-02-04 16:35:00,
2013-02-04 11:40:00,26.1,10.0,29.52,North,0,0.0,0.0,50,0.00,,,0.00,WUHU216HW,2013-02-04 16:40:00,
2013-02-04 12:00:00,26.1,9.0,29.52,North,0,0.0,0.0,48,0.00,,,0.00,WUHU216HW,2013-02-04 17:00:00,
2013-02-04 12:05:00,25.9,7.8,29.51,North,0,0.0,0.0,46,0.00,,,0.00,WUHU216HW,2013-02-04 17:05:00,
2013-02-04 12:10:00,26.1,9.0,29.51,North,0,0.0,0.0,48,0.00,,,0.00,WUHU216HW,2013-02-04 17:10:00,
2013-02-04 12:15:00,26.3,9.2,29.51,North,0,0.0,0.0,48,0.00,,,0.00,WUHU216HW,2013-02-04 17:15:00,
2013-02-04 12:20:00,26.8,8.6,29.51,North,0,0.0,0.0,46,0.00,,,0.00,WUHU216HW,2013-02-04 17:20:00,
2013-02-04 12:25:00,27.0,8.4,29.51,North,0,0.0,0.0,45,0.00,,,0.00,WUHU216HW,2013-02-04 17:25:00,
2013-02-04 12:30:00,26.8,8.2,29.51,North,0,0.0,0.0,45,0.00,,,0.00,WUHU216HW,2013-02-04 17:30:00,
2013-02-04 12:35:00,26.3,7.7,29.51,North,0,0.0,0.0,45,0.00,,,0.00,WUHU216HW,2013-02-04 17:35:00,
2013-02-04 12:40:00,26.3,7.7,29.51,North,0,0.0,0.0,45,0.00,,,0.00,WUHU216HW,2013-02-04 17:40:00,
2013-02-04 13:00:00,26.6,9.5,29.51,North,0,0.0,0.0,48,0.00,,,0.00,WUHU216HW,2013-02-04 18:00:00,
2013-02-04 13:05:00,26.5,9.3,29.51,North,0,0.0,0.0,48,0.00,,,0.00,WUHU216HW,2013-02-04 18:05:00,
2013-02-04 13:10:00,26.1,9.0,29.51,North,0,0.0,0.0,48,0.00,,,0.00,WUHU216HW,2013-02-04 18:10:00,
2013-02-04 13:15:00,25.9,9.3,29.51,North,0,0.0,0.0,49,0.00,,,0.00,WUHU216HW,2013-02-04 18:15:00,
2013-02-04 13:20:00,25.7,9.6,29.51,North,0,0.0,0.0,50,0.00,,,0.00,WUHU216HW,2013-02-04 18:20:00,
2013-02-04 13:25:00,25.7,9.6,29.51,North,0,0.0,0.0,50,0.00,,,0.00,WUHU216HW,2013-02-04 18:25:00,
2013-02-04 13:30:00,25.9,9.8,29.51,North,0,0.0,0.0,50,0.00,,,0.00,WUHU216HW,2013-02-04 18:30:00,
2013-02-04 13:35:00,26.3,10.1,29.51,North,0,0.0,0.0,50,0.00,,,0.00,WUHU216HW,2013-02-04 18:35:00,
2013-02-04 13:40:00,26.3,10.1,29.51,North,0,0.0,0.0,50,0.00,,,0.00,WUHU216HW,2013-02-04 18:40:00,
2013-02-04 14:00:00,28.1,8.9,29.51,North,0,0.0,0.0,44,0.00,,,0.00,WUHU216HW,2013-02-04 19:00:00,
2013-02-04 14:06:00,28.1,8.9,29.51,North,0,0.0,0.0,44,0.00,,,0.00,WUHU216HW,2013-02-04 19:06:00,
2013-02-04 15:00:00,26.5,9.8,29.53,North,0,0.0,0.0,49,0.00,,,0.00,WUHU216HW,2013-02-04 20:00:00,
2013-02-04 15:05:00,26.5,9.8,29.53,North,0,0.0,0.0,49,0.00,,,0.00,WUHU216HW,2013-02-04 20:05:00,
2013-02-04 15:10:00,26.6,10.0,29.53,North,0,0.0,0.0,49,0.00,,,0.00,WUHU216HW,2013-02-04 20:10:00,
2013-02-04 15:15:00,26.3,9.6,29.53,North,0,0.0,0.0,49,0.00,,,0.00,WUHU216HW,2013-02-04 20:15:00,
2013-02-04 15:20:00,25.9,9.3,29.53,North,0,0.0,0.0,49,0.00,,,0.00,WUHU216HW,2013-02-04 20:20:00,
2013-02-04 15:25:00,25.7,9.2,29.53,North,0,0.0,0.0,49,0.00,,,0.00,WUHU216HW,2013-02-04 20:25:00,
2013-02-04 15:30:00,25.4,9.3,29.53,North,0,0.0,0.0,50,0.00,,,0.00,WUHU216HW,2013-02-04 20:30:00,
2013-02-04 15:35:00,25.0,9.0,29.53,North,0,0.0,0.0,50,0.00,,,0.00,WUHU216HW,2013-02-04 20:35:00,
2013-02-04 15:40:00,24.8,8.8,29.53,North,0,0.0,0.0,50,0.00,,,0.00,WUHU216HW,2013-02-04 20:40:00,
2013-02-04 15:45:00,24.7,9.1,29.53,North,0,0.0,0.0,51,0.00,,,0.00,WUHU216HW,2013-02-04 20:45:00,
2013-02-04 15:50:00,24.5,8.9,29.53,North,0,0.0,0.0,51,0.00,,,0.00,WUHU216HW,2013-02-04 20:50:00,
2013-02-04 15:55:00,24.5,8.9,29.53,North,0,0.0,0.0,51,0.00,,,0.00,WUHU216HW,2013-02-04 20:55:00,
2013-02-04 16:00:00,24.7,9.1,29.53,North,0,0.0,0.0,51,0.00,,,0.00,WUHU216HW,2013-02-04 21:00:00,
2013-02-04 16:05:00,24.8,9.3,29.53,North,0,0.0,0.0,51,0.00,,,0.00,WUHU216HW,2013-02-04 21:05:00,
2013-02-04 16:10:00,24.7,9.5,29.54,North,0,0.0,0.0,52,0.00,,,0.00,WUHU216HW,2013-02-04 21:10:00,
2013-02-04 16:15:00,24.5,9.4,29.54,North,0,0.0,0.0,52,0.00,,,0.00,WUHU216HW,2013-02-04 21:15:00,
2013-02-04 16:20:00,24.3,9.2,29.53,North,0,0.0,0.0,52,0.00,,,0.00,WUHU216HW,2013-02-04 21:20:00,
2013-02-04 16:25:00,24.1,8.6,29.53,North,0,0.0,0.0,51,0.00,,,0.00,WUHU216HW,2013-02-04 21:25:00,
2013-02-04 16:30:00,24.1,8.6,29.53,North,0,0.0,0.0,51,0.00,,,0.00,WUHU216HW,2013-02-04 21:30:00,
2013-02-04 16:35:00,23.9,8.0,29.53,North,0,0.0,0.0,50,0.00,,,0.00,WUHU216HW,2013-02-04 21:35:00,
2013-02-04 16:41:00,23.9,8.0,29.53,North,0,0.0,0.0,50,0.00,,,0.00,WUHU216HW,2013-02-04 21:41:00,
2013-02-04 17:00:00,23.4,6.6,29.55,North,0,0.0,0.0,48,0.00,,,0.00,WUHU216HW,2013-02-04 22:00:00,
2013-02-04 17:05:00,23.2,6.4,29.55,North,0,0.0,0.0,48,0.00,,,0.00,WUHU216HW,2013-02-04 22:05:00,
2013-02-04 17:10:00,23.0,6.8,29.55,North,0,0.0,0.0,49,0.00,,,0.00,WUHU216HW,2013-02-04 22:10:00,
2013-02-04 17:15:00,22.9,6.6,29.55,North,0,0.0,0.0,49,0.00,,,0.00,WUHU216HW,2013-02-04 22:15:00,
2013-02-04 17:20:00,22.7,6.8,29.56,North,0,0.0,0.0,50,0.00,,,0.00,WUHU216HW,2013-02-04 22:20:00,
2013-02-04 17:25:00,22.7,6.8,29.56,North,0,0.0,0.0,50,0.00,,,0.00,WUHU216HW,2013-02-04 22:25:00,
2013-02-04 17:30:00,22.5,6.7,29.56,North,0,0.0,0.0,50,0.00,,,0.00,WUHU216HW,2013-02-04 22:30:00,
2013-02-04 17:35:00,22.3,6.5,29.56,North,0,0.0,0.0,50,0.00,,,0.00,WUHU216HW,2013-02-04 22:35:00,
2013-02-04 17:40:00,22.3,6.5,29.56,North,0,0.0,0.0,50,0.00,,,0.00,WUHU216HW,2013-02-04 22:40:00,
2013-02-04 17:45:00,22.1,6.3,29.56,North,0,0.0,0.0,50,0.00,,,0.00,WUHU216HW,2013-02-04 22:45:00,
2013-02-04 17:50:00,22.1,6.3,29.56,North,0,0.0,0.0,50,0.00,,,0.00,WUHU216HW,2013-02-04 22:50:00,
2013-02-04 17:55:00,22.1,6.3,29.56,North,0,0.0,0.0,50,0.00,,,0.00,WUHU216HW,2013-02-04 22:55:00,
2013-02-04 18:00:00,22.0,6.1,29.57,North,0,0.0,0.0,50,0.00,,,0.00,WUHU216HW,2013-02-04 23:00:00,
2013-02-04 18:05:00,22.0,6.1,29.57,North,0,0.0,0.0,50,0.00,,,0.00,WUHU216HW,2013-02-04 23:05:00,
2013-02-04 18:10:00,22.0,6.6,29.57,North,0,0.0,0.0,51,0.00,,,0.00,WUHU216HW,2013-02-04 23:10:00,
2013-02-04 18:15:00,21.8,6.4,29.57,North,0,0.0,0.0,51,0.00,,,0.00,WUHU216HW,2013-02-04 23:15:00,
2013-02-04 18:21:00,21.8,6.4,29.59,North,0,0.0,0.0,51,0.00,,,0.00,WUHU216HW,2013-02-04 23:21:00,
2013-02-04 18:25:00,21.8,5.9,29.59,North,0,0.0,0.0,50,0.00,,,0.00,WUHU216HW,2013-02-04 23:25:00,
2013-02-04 18:31:00,21.6,5.8,29.59,North,0,0.0,0.0,50,0.00,,,0.00,WUHU216HW,2013-02-04 23:31:00,
2013-02-04 18:36:00,21.6,5.8,29.60,North,0,0.0,0.0,50,0.00,,,0.00,WUHU216HW,2013-02-04 23:36:00,
2013-02-04 18:41:00,21.6,5.8,29.60,North,0,0.0,0.0,50,0.00,,,0.00,WUHU216HW,2013-02-04 23:41:00,
2013-02-04 19:00:00,21.4,5.6,29.61,North,0,0.0,0.0,50,0.00,,,0.00,WUHU216HW,2013-02-05 00:00:00,
2013-02-04 19:05:00,21.2,5.4,29.61,North,0,0.0,0.0,50,0.00,,,0.00,WUHU216HW,2013-02-05 00:05:00,
2013-02-04 19:10:00,21.2,5.4,29.61,North,0,0.0,0.0,50,0.00,,,0.00,WUHU216HW,2013-02-05 00:10:00,
2013-02-04 19:15:00,21.2,5.9,29.61,North,0,0.0,0.0,51,0.00,,,0.00,WUHU216HW,2013-02-05 00:15:00,
2013-02-04 19:20:00,21.1,5.7,29.62,North,0,0.0,0.0,51,0.00,,,0.00,WUHU216HW,2013-02-05 00:20:00,
2013-02-04 19:25:00,20.9,5.0,29.62,North,0,0.0,0.0,50,0.00,,,0.00,WUHU216HW,2013-02-05 00:25:00,
2013-02-04 19:30:00,20.9,5.0,29.62,North,0,0.0,0.0,50,0.00,,,0.00,WUHU216HW,2013-02-05 00:30:00,
2013-02-04 19:35:00,20.9,5.0,29.62,North,0,0.0,0.0,50,0.00,,,0.00,WUHU216HW,2013-02-05 00:35:00,
2013-02-04 19:40:00,20.9,5.0,29.62,North,0,0.0,0.0,50,0.00,,,0.00,WUHU216HW,2013-02-05 00:40:00,
2013-02-04 20:00:00,20.3,4.6,29.63,North,0,0.0,0.0,50,0.00,,,0.00,WUHU216HW,2013-02-05 01:00:00,
2013-02-04 20:05:00,20.2,4.4,29.64,North,0,0.0,0.0,50,0.00,,,0.00,WUHU216HW,2013-02-05 01:05:00,
2013-02-04 20:10:00,20.0,4.2,29.64,North,0,0.0,0.0,50,0.00,,,0.00,WUHU216HW,2013-02-05 01:10:00,
2013-02-04 20:15:00,20.0,4.2,29.64,North,0,0.0,0.0,50,0.00,,,0.00,WUHU216HW,2013-02-05 01:15:00,
2013-02-04 20:20:00,19.8,4.2,29.64,North,0,0.0,0.0,50,0.00,,,0.00,WUHU216HW,2013-02-05 01:20:00,
2013-02-04 20:25:00,19.8,4.2,29.64,North,0,0.0,0.0,50,0.00,,,0.00,WUHU216HW,2013-02-05 01:25:00,
2013-02-04 20:30:00,19.6,4.0,29.64,North,0,0.0,0.0,50,0.00,,,0.00,WUHU216HW,2013-02-05 01:30:00,
2013-02-04 20:35:00,19.6,4.0,29.64,North,0,0.0,0.0,50,0.00,,,0.00,WUHU216HW,2013-02-05 01:35:00,
2013-02-04 20:40:00,19.6,4.0,29.64,North,0,0.0,0.0,50,0.00,,,0.00,WUHU216HW,2013-02-05 01:40:00,
2013-02-04 21:00:00,18.9,3.7,29.64,North,0,0.0,0.0,51,0.00,,,0.00,WUHU216HW,2013-02-05 02:00:00,
2013-02-04 21:05:00,18.7,3.5,29.65,North,0,0.0,0.0,51,0.00,,,0.00,WUHU216HW,2013-02-05 02:05:00,
2013-02-04 21:10:00,18.7,3.5,29.65,North,0,0.0,0.0,51,0.00,,,0.00,WUHU216HW,2013-02-05 02:10:00,
2013-02-04 21:15:00,18.5,3.3,29.65,North,0,0.0,0.0,51,0.00,,,0.00,WUHU216HW,2013-02-05 02:15:00,
2013-02-04 21:20:00,18.4,3.3,29.64,North,0,0.0,0.0,51,0.00,,,0.00,WUHU216HW,2013-02-05 02:20:00,
2013-02-04 21:25:00,18.4,3.3,29.65,North,0,0.0,0.0,51,0.00,,,0.00,WUHU216HW,2013-02-05 02:25:00,
2013-02-04 21:30:00,18.0,3.2,29.65,North,0,0.0,0.0,52,0.00,,,0.00,WUHU216HW,2013-02-05 02:30:00,
2013-02-04 21:35:00,18.0,3.2,29.65,North,0,0.0,0.0,52,0.00,,,0.00,WUHU216HW,2013-02-05 02:35:00,
2013-02-04 21:40:00,18.0,3.2,29.65,North,0,0.0,0.0,52,0.00,,,0.00,WUHU216HW,2013-02-05 02:40:00,
2013-02-04 22:00:00,17.5,3.6,29.65,North,0,0.0,0.0,54,0.00,,,0.00,WUHU216HW,2013-02-05 03:00:00,
2013-02-04 22:05:00,17.5,3.6,29.65,North,0,0.0,0.0,54,0.00,,,0.00,WUHU216HW,2013-02-05 03:05:00,
2013-02-04 22:10:00,17.5,3.6,29.65,North,0,0.0,0.0,54,0.00,,,0.00,WUHU216HW,2013-02-05 03:10:00,
2013-02-04 22:15:00,17.5,3.6,29.65,North,0,0.0,0.0,54,0.00,,,0.00,WUHU216HW,2013-02-05 03:15:00,
2013-02-04 22:20:00,17.3,3.4,29.65,North,0,0.0,0.0,54,0.00,,,0.00,WUHU216HW,2013-02-05 03:20:00,
2013-02-04 22:25:00,17.1,3.3,29.65,North,0,0.0,0.0,54,0.00,,,0.00,WUHU216HW,2013-02-05 03:25:00,
2013-02-04 22:30:00,16.9,3.1,29.65,North,0,0.0,0.0,54,0.00,,,0.00,WUHU216HW,2013-02-05 03:30:00,
2013-02-04 22:36:00,16.7,3.3,29.65,North,0,0.0,0.0,55,0.00,,,0.00,WUHU216HW,2013-02-05 03:36:00,
2013-02-04 22:41:00,16.6,3.2,29.65,North,0,0.0,0.0,55,0.00,,,0.00,WUHU216HW,2013-02-05 03:41:00,
2013-02-04 22:46:00,16.4,3.0,29.65,North,0,0.0,0.0,55,0.00,,,0.00,WUHU216HW,2013-02-05 03:46:00,
2013-02-04 22:51:00,16.4,3.0,29.65,North,0,0.0,0.0,55,0.00,,,0.00,WUHU216HW,2013-02-05 03:51:00,